Powrót do katalogu

STARLINK-35870

AktywnyŁącznośćVLEO
NORAD 66572·PAYLOAD·🇺🇸 United States

Wystrzelony Nov 21, 2025 z Cape Canaveral Space Force Station

Loading…

Następne Przeloty (najbliższe 24 godziny)

TLE

ŚwieżeSource: CelesTrak SupGP

Epoka: Sep 15, 2026, 03:31 UTC

1 66572C 25268R   26258.14701389  .00043612  00000+0  15798-2 0  2580
2 66572  43.0013 357.4170 0001734 271.4510   2.2754 15.27552776    19

Śledź STARLINK-35870 w czasie rzeczywistym z AllMySat

Download on the App Store